Weather History for Hobbs, NM

Change the Weather History Date:

Thursday, February 21, 2013

  Actual Average Record
Temperature  
Mean Temperature 44 °F -  
Max Temperature 57 °F 59 °F 78 °F (2000)
Min Temperature 32 °F 33 °F 10 °F (1955)
Degree Days  
Heating Degree Days 20    
Moisture  
Dew Point 24 °F    
Average Humidity 53    
Maximum Humidity 100    
Minimum Humidity 23    
Precipitation  
Precipitation 0.00 in - - ()
Sea Level Pressure  
Sea Level Pressure 29.78 in    
Wind  
Wind Speed 12 mph (SW)    
Max Wind Speed 23 mph    
Max Gust Speed 33 mph    
Visibility 10 miles    
Events      
Averages and records for this station are not official NWS values.
T = Trace of Precipitation, MM = Missing Value Source: NWS Daily Summary

Daily Weather History Graph

Daily Weather History Graph

Search for Another Location

Airport:

Trip Planner

Search our weather history database for the weather conditions in past years. The results will help you decide how hot, cold, wet, or windy it might be!

Date:

Astronomy

Feb. 21, 2013 Rise Set
Actual Time 6:29 AM MST 5:43 PM MST
Civil Twilight 6:04 AM MST 6:08 PM MST
Nautical Twilight 5:35 AM MST 6:37 PM MST
Astronomical Twilight 5:07 AM MST 7:06 PM MST
Moon 2:08 PM MST (2/21) 3:26 AM MST (2/21)
Length of Visible Light 12h 04m
Length of Day
11h 14m
Waxing Gibbous, 84% of the Moon is Illuminated
Feb 21
Waxing Gibbous
Feb 25
Full
Mar 4
Last Quarter
Mar 11
New
Mar 19
First Quarter

Hourly Weather History & Observations

Time (MST) Temp. Windchill Dew Point Humidity Pressure Visibility Wind Dir Wind Speed Gust Speed Precip Events Conditions
12:15 AM 41.0 °F - 41.0 °F 100% 29.67 in 10.0 mi Calm Calm - N/A   Clear
12:35 AM 41.0 °F 36.4 °F 41.0 °F 100% 29.68 in 10.0 mi SW 6.9 mph - N/A   Partly Cloudy
12:55 AM 42.8 °F 35.8 °F 37.4 °F 81% 29.69 in 10.0 mi SW 13.8 mph 21.9 mph N/A   Partly Cloudy
1:15 AM 41.0 °F 31.1 °F 32.0 °F 70% 29.68 in 10.0 mi SW 23.0 mph 28.8 mph N/A   Partly Cloudy
1:35 AM 41.0 °F 32.2 °F 28.4 °F 61% 29.69 in 10.0 mi SSW 18.4 mph 21.9 mph N/A   Partly Cloudy
1:55 AM 41.0 °F 33.5 °F 28.4 °F 61% 29.67 in 10.0 mi SSW 13.8 mph 24.2 mph N/A   Partly Cloudy
2:15 AM 39.2 °F 30.5 °F 28.4 °F 65% 29.65 in 10.0 mi SSW 16.1 mph - N/A   Partly Cloudy
2:35 AM 37.4 °F 27.5 °F 26.6 °F 65% 29.65 in 10.0 mi SW 18.4 mph - N/A   Clear
2:55 AM 37.4 °F 26.6 °F 24.8 °F 60% 29.66 in 10.0 mi SW 21.9 mph 26.5 mph N/A   Clear
3:15 AM 37.4 °F 27.5 °F 24.8 °F 60% 29.66 in 10.0 mi SW 18.4 mph 29.9 mph N/A   Clear
3:35 AM 37.4 °F 27.8 °F 24.8 °F 60% 29.66 in 10.0 mi SW 17.3 mph 23.0 mph N/A   Clear
3:55 AM 35.6 °F 25.9 °F 24.8 °F 65% 29.67 in 10.0 mi SW 16.1 mph 25.3 mph N/A   Clear
5:50 AM 33.8 °F 22.5 °F 23.0 °F 65% 29.67 in 10.0 mi SSW 19.6 mph 26.5 mph N/A   Clear
6:50 AM 33.8 °F 21.6 °F 23.0 °F 65% 29.68 in 10.0 mi SW 23.0 mph 33.4 mph N/A   Clear
7:50 AM 35.6 °F 24.2 °F 23.0 °F 60% 29.71 in 10.0 mi SW 21.9 mph 28.8 mph N/A   Clear
9:50 AM 44.6 °F 36.4 °F 24.8 °F 46% 29.74 in 10.0 mi SW 20.7 mph 27.6 mph N/A   Clear
10:50 AM 48.2 °F - 24.8 °F 40% 29.76 in 10.0 mi WSW 21.9 mph 28.8 mph N/A   Clear
11:50 AM 51.8 °F - 24.8 °F 35% 29.76 in 10.0 mi WSW 23.0 mph 29.9 mph N/A   Clear
12:50 PM 53.6 °F - 23.0 °F 30% 29.76 in 10.0 mi WSW 23.0 mph 29.9 mph N/A   Clear
1:50 PM 55.4 °F - 21.2 °F 26% 29.75 in 10.0 mi WSW 16.1 mph 27.6 mph N/A   Clear
2:50 PM 57.2 °F - 19.4 °F 23% 29.75 in 10.0 mi WSW 18.4 mph 28.8 mph N/A   Clear
3:50 PM 55.4 °F - 19.4 °F 25% 29.75 in 10.0 mi SW 20.7 mph 27.6 mph N/A   Clear
4:50 PM 53.6 °F - 17.6 °F 24% 29.76 in 10.0 mi SW 16.1 mph - N/A   Clear
5:15 PM 53.6 °F - 17.6 °F 24% 29.77 in 10.0 mi SW 13.8 mph 23.0 mph N/A   Clear
5:35 PM 50.0 °F - 21.2 °F 32% 29.78 in 10.0 mi SW 15.0 mph - N/A   Clear
5:50 PM 48.2 °F - 19.4 °F 32% 29.78 in 10.0 mi SW 13.8 mph - N/A   Clear
5:55 PM 48.2 °F - 19.4 °F 32% 29.80 in 10.0 mi SW 12.7 mph - N/A   Clear
6:15 PM 46.4 °F 41.1 °F 21.2 °F 37% 29.82 in 10.0 mi SW 11.5 mph - N/A   Clear
6:35 PM 44.6 °F - 23.0 °F 43% 29.82 in 10.0 mi Calm Calm - N/A   Clear
6:55 PM 42.8 °F 37.5 °F 23.0 °F 46% 29.82 in 10.0 mi WSW 9.2 mph - N/A   Clear
7:15 PM 42.8 °F 38.0 °F 23.0 °F 46% 29.84 in 10.0 mi WSW 8.1 mph - N/A   Clear
7:35 PM 39.2 °F - 26.6 °F 61% 29.87 in 10.0 mi Calm Calm - N/A   Clear
7:55 PM 41.0 °F 34.7 °F 23.0 °F 49% 29.88 in 10.0 mi SW 10.4 mph - N/A   Clear
8:15 PM 41.0 °F - 23.0 °F 49% 29.88 in 10.0 mi Calm Calm - N/A   Clear
8:35 PM 39.2 °F 33.6 °F 23.0 °F 52% 29.89 in 10.0 mi West 8.1 mph - N/A   Clear
8:55 PM 41.0 °F 34.7 °F 21.2 °F 45% 29.89 in 10.0 mi WSW 10.4 mph - N/A   Clear
9:15 PM 39.2 °F 34.2 °F 23.0 °F 52% 29.90 in 10.0 mi SW 6.9 mph - N/A   Clear
9:35 PM 35.6 °F - 24.8 °F 65% 29.91 in 10.0 mi Calm Calm - N/A   Clear
9:55 PM 41.0 °F - 21.2 °F 45% 29.90 in 10.0 mi Calm Calm - N/A   Clear
10:15 PM 37.4 °F 29.8 °F 23.0 °F 56% 29.89 in 10.0 mi NW 11.5 mph - N/A   Clear
10:35 PM 37.4 °F 31.4 °F 23.0 °F 56% 29.89 in 10.0 mi NW 8.1 mph - N/A   Clear
10:55 PM 33.8 °F - 24.8 °F 70% 29.90 in 10.0 mi Calm Calm - N/A   Clear
11:15 PM 32.0 °F - 24.8 °F 75% 29.91 in 10.0 mi Calm Calm - N/A   Clear
11:35 PM 35.6 °F - 23.0 °F 60% 29.90 in 10.0 mi Calm Calm - N/A   Clear
11:55 PM 35.6 °F - 23.0 °F 60% 29.90 in 10.0 mi Calm Calm - N/A   Clear